Farmingdale, NY

11:15 PM EDT on April 26, 2018 (GMT -0400)
Republic

Weather History for KFRG - May, 2014

Change the Weather History Date:

Tuesday, May 6, 2014

  Actual Average Record
Temperature  
Mean Temperature 57 °F -  
Max Temperature 68 °F 64 °F 86 °F (2000)
Min Temperature 48 °F 47 °F 41 °F (2011)
Degree Days  
Heating Degree Days 8    
Growing Degree Days 7 (Base 50)    
Moisture  
Dew Point 32 °F    
Average Humidity 38    
Maximum Humidity 63    
Minimum Humidity 24    
Precipitation  
Precipitation 0.00 in - - ()
Sea Level Pressure  
Sea Level Pressure 29.93 in    
Wind  
Wind Speed 6 mph (NNW)    
Max Wind Speed 17 mph    
Max Gust Speed 26 mph    
Visibility 10 miles    
Events      
Averages and records for this station are not official NWS values.
T = Trace of Precipitation, MM = Missing Value Source: NWS Daily Summary

Daily Weather History Graph

Daily Weather History Graph

Search for Another Location

Airport or City:

Astronomy

May. 06, 2014 Rise Set
Actual Time 5:46 AM EDT 7:55 PM EDT
Civil Twilight 5:15 AM EDT 8:25 PM EDT
Nautical Twilight 4:38 AM EDT 9:02 PM EDT
Astronomical Twilight 3:58 AM EDT 9:43 PM EDT
Moon 12:00 PM EDT (5/6) 1:12 AM EDT (5/6)
Length of Visible Light 15h 09m
Length of Day
14h 08m
Waxing Crescent, 46% of the Moon is Illuminated
May 6
Waxing Crescent
May 6
First Quarter
May 14
Full
May 21
Last Quarter
May 28
New

Hourly Weather History & Observations

Time (EDT) Temp. Dew Point Humidity Pressure Visibility Wind Dir Wind Speed Gust Speed Precip Events Conditions
12:53 AM 52.0 °F 35.1 °F 53% 29.88 in 10.0 mi North 3.5 mph - N/A   Clear
1:53 AM 51.1 °F 35.1 °F 54% 29.88 in 10.0 mi Calm Calm - N/A   Clear
2:53 AM 50.0 °F 35.1 °F 57% 29.87 in 10.0 mi Calm Calm - N/A   Clear
3:53 AM 48.0 °F 36.0 °F 63% 29.88 in 10.0 mi North 3.5 mph - N/A   Scattered Clouds
7:53 AM 55.0 °F 37.9 °F 53% 29.93 in 10.0 mi North 9.2 mph - N/A   Partly Cloudy
8:53 AM 55.9 °F 35.1 °F 45% 29.94 in 10.0 mi North 6.9 mph - N/A   Mostly Cloudy
10:53 AM 59.0 °F 30.9 °F 35% 29.94 in 10.0 mi NNW 6.9 mph - N/A   Overcast
11:53 AM 60.1 °F 30.0 °F 32% 29.92 in 10.0 mi NW 5.8 mph - N/A   Overcast
12:53 PM 63.0 °F 33.1 °F 33% 29.92 in 10.0 mi WNW 10.4 mph - N/A   Overcast
1:53 PM 64.9 °F 32.0 °F 29% 29.91 in 10.0 mi WNW 10.4 mph 17.3 mph N/A   Partly Cloudy
2:53 PM 66.9 °F 28.9 °F 24% 29.88 in 10.0 mi WNW 13.8 mph 21.9 mph N/A   Mostly Cloudy
3:53 PM 66.9 °F 28.9 °F 24% 29.88 in 10.0 mi NW 11.5 mph 19.6 mph N/A   Mostly Cloudy
4:53 PM 66.0 °F 30.0 °F 26% 29.89 in 10.0 mi NNW 17.3 mph 26.5 mph N/A   Mostly Cloudy
5:53 PM 66.0 °F 28.9 °F 25% 29.91 in 10.0 mi NNW 16.1 mph 21.9 mph N/A   Scattered Clouds
6:53 PM 64.0 °F 27.0 °F 25% 29.94 in 10.0 mi NNW 13.8 mph 26.5 mph N/A   Clear
7:53 PM 62.1 °F 28.0 °F 28% 29.97 in 10.0 mi NW 5.8 mph - N/A   Scattered Clouds
8:53 PM 60.1 °F 28.0 °F 30% 30.00 in 10.0 mi NNW 5.8 mph - N/A   Clear
9:53 PM 57.9 °F 28.9 °F 33% 30.03 in 10.0 mi North 4.6 mph - N/A   Clear
10:53 PM 53.1 °F 32.0 °F 45% 30.05 in 10.0 mi North 4.6 mph - N/A   Clear
11:53 PM 51.1 °F 32.0 °F 48% 30.07 in 10.0 mi North 5.8 mph - N/A   Clear